Weather in Lar

Iran     27°41′34″N   54°20′52″E
temp.,
°C
wind,
m/s
gust,
m/s
humid.,
%
clouds,
%
prec.,
mm/h
press.,
hPa
HPBL,
m
2 march, tue
tue200:30+15w113668 0.0 101823
03:30+15nnw113678 0.0 101623
06:30+15ene124037 0.0 101823
09:30+20se222937 0.0 1019531
12:30+25sw6112341 0.0 10182625
15:30+25sw9132123 0.0 10153082
18:30+20w44290 0.0 101660
21:30+18w33325 0.0 101725
3 march, wed
wed300:30+17nw223637 0.0 101724
03:30+17wnw123864 0.0 101523
06:30+15wsw014380 0.0 101723
09:30+22sw132461 0.0 1017608
12:30+26wsw713169 0.0 10152800
15:30+26w914179 0.0 10132697
18:30+21wnw46170 0.0 1014107
21:30+18w33170 0.0 101627
4 march, thu
thu400:30+16wnw12170 0.0 101623
03:30+15wnw11185 0.0 101523
06:30+14n01200 0.0 101623
09:30+22sw11140 0.0 1017326
12:30+26wsw24170 0.0 10152030
15:30+28w45150 0.0 10132375
18:30+23w55200 0.0 101579
21:30+19wnw22240 0.0 101623
5 march, fri
fri500:30+17sse00280 0.0 101523
03:30+16ssw11300 0.0 101423
06:30+16ese22308 0.0 101523
09:30+25s251837 0.0 1016604
12:30+29sw13151430 0.0 10143024
15:30+27sw10141715 0.0 10122185
18:30+22wsw34220 0.0 101340
21:30+19wnw44362 0.0 101458
6 march, sat
sat600:30+16wnw34580 0.0 101439
03:30+14w34650 0.0 101334
06:30+11wnw34680 0.0 101435
09:30+18nw22330 0.0 1015418
12:30+24wnw56110 0.0 1013994
15:30+24w8890 0.0 10101068
18:30+18wnw57170 0.0 1011107
21:30+14w23280 0.0 101324